Date,TemperatureHighF,TemperatureAvgF,TemperatureLowF,DewpointHighF,DewpointAvgF,DewpointLowF,HumidityHigh,HumidityAvg,HumidityLow,PressureMaxIn,PressureMinIn,WindSpeedMaxMPH,WindSpeedAvgMPH,GustSpeedMaxMPH,PrecipitationSumIn
2013-2-1,27.9,23.4,17.6,19.8,11.6,4.0,88,61,48,30.05,29.49,8,3,16,0.00
2013-2-2,25.5,19.9,12.6,14.9,8.5,3.8,75,61,46,30.19,30.01,6,1,12,0.00
2013-2-3,27.9,22.2,14.1,17.2,15.0,10.9,90,74,58,30.02,29.71,3,0,5,0.00
2013-2-4,26.0,21.1,16.8,16.9,9.1,2.5,86,61,40,29.88,29.69,7,2,13,0.00
2013-2-5,26.5,18.4,7.3,14.1,7.7,3.2,84,64,42,30.01,29.86,6,1,12,0.00
2013-2-6,21.4,21.2,20.2,18.2,17.5,13.7,88,86,74,29.96,29.91,0,0,0,0.00
2013-2-7,23.0,20.2,10.8,18.1,6.8,-2.6,87,59,34,30.53,29.96,5,1,10,0.00
2013-2-8,20.9,17.6,16.0,14.6,11.4,1.8,91,78,43,30.49,29.82,5,1,9,0.00
2013-2-9,19.6,15.6,12.1,17.8,11.0,4.0,93,82,67,30.24,29.76,9,3,20,0.00
2013-2-10,32.0,18.2,9.2,14.0,5.8,0.8,81,60,29,30.44,30.24,8,2,13,0.00
2013-2-11,28.0,19.6,9.2,27.0,16.8,4.7,96,89,74,30.34,29.61,3,0,4,0.00
2013-2-12,41.3,36.2,27.9,31.9,29.2,26.7,97,76,62,29.82,29.58,9,2,15,0.40
2013-2-13,39.0,32.1,26.5,28.2,23.7,21.2,84,72,50,29.83,29.72,6,1,10,0.05
2013-2-14,38.4,30.4,25.2,26.1,22.6,20.7,87,74,50,29.96,29.69,6,0,12,0.01
2013-2-15,45.6,31.0,19.4,31.3,24.7,17.2,92,78,53,29.96,29.86,5,0,12,0.07
2013-2-16,36.9,31.7,24.3,28.1,21.7,6.5,90,67,46,29.95,29.75,5,2,12,0.00
2013-2-17,24.2,18.3,13.4,8.6,5.0,1.7,68,56,45,29.76,29.44,13,5,23,0.01
2013-2-18,26.1,18.7,11.5,7.1,1.3,-2.9,64,48,29,30.11,29.68,11,4,21,0.00
2013-2-19,38.3,26.8,13.6,32.3,17.3,1.1,96,69,40,30.15,29.56,3,0,5,0.14
2013-2-20,34.2,29.3,24.0,33.4,21.2,15.2,97,72,57,29.71,29.51,9,4,20,0.01
2013-2-21,24.5,22.4,20.0,16.9,14.3,10.5,79,71,66,29.80,29.70,8,4,16,0.00
2013-2-24,34.6,32.6,31.4,32.8,31.5,30.4,97,96,92,29.88,29.75,0,0,1,0.08
2013-2-25,36.7,32.4,27.5,33.7,30.9,26.4,97,94,84,30.21,29.88,4,0,7,0.24
2013-2-26,39.4,33.9,30.5,34.6,31.6,29.2,97,92,79,30.32,30.17,3,0,5,0.22
2013-2-27,35.3,32.7,30.8,34.5,31.7,29.8,97,96,93,30.17,29.63,4,0,8,0.00
2013-2-28,40.1,34.2,31.2,38.1,33.2,30.4,98,96,91,29.63,29.53,2,0,4,0.65